Location: Le Gr�zie
(43.6000°N, 13.5000°E)
Time: 12:15:00
(UTC+00:00)

Cosmos-2242 - Pass Details

Date: 09 April 2020
Orbit: 590 x 618 km, 82.5° (Epoch: 26 May)

Event Time Altitude Azimuth Distance (km) Brightness Sun altitude
Exits shadow 20:08:40 30° 38° (NE) 1,102 4.3 -24.5°
Drops below altitude 10° 20:11:06 10° 20° (NNE) 1,973 5.9 -24.8°
Sets 20:13:24 0° 14° (NNE) 2,887 6.8 -25.1°
